Regional Weather Roundup
Issued by NWS Upton, NY

Current Version | Previous Version | Text Only | Print | Product List | Glossary On
Versions: 1 2 3 4 5 6 7 8 9 10 11 12 13 14 15 16 17 18 19 20 21 22 23 24 25 26 27 28 29 30 31 32 33 34 35 36 37 38 39 40 41 42 43 44 45 46 47 48 49 50
000
ASUS41 KOKX 271504
RWROKX

REGIONAL WEATHER ROUNDUP
NATIONAL WEATHER SERVICE NEW YORK NY
1100 AM EDT WED JUL 27 2016

NOTE: "FAIR" INDICATES FEW OR NO CLOUDS BELOW 12,000 FEET WITH NO
SIGNIFICANT WEATHER AND/OR OBSTRUCTIONS TO VISIBILITY.

NYZ071-072-176-178-NJZ106-104-271600-
NEW YORK CITY METRO AREA

CITY           SKY/WX    TMP DP  RH WIND       PRES   REMARKS
Central Park   SUNNY     84  60  44 W5        29.98S
LaGuardia APRT MOSUNNY   84  60  44 NE9       29.95S
Kennedy INTL   MOSUNNY   84  62  47 S8        29.96S
Newark/Liberty MOSUNNY   85  61  44 VRB5      29.95S
Bronx Bot Gard   N/A     84  61  45 W3        29.96S
Wall St Helipt SUNNY     88  59  37 W5        29.96S
Teterboro      SUNNY     86  61  42 CALM      29.94F
$$

NYZ177-179-078>081-271600-
LONG ISLAND NEW YORK

CITY           SKY/WX    TMP DP  RH WIND       PRES   REMARKS
Farmingdale    SUNNY     86  62  44 SE3       29.95S
MacArthur/ISP  MOSUNNY   86  63  45 VRB7      29.94S
Shirley        SUNNY     86  63  45 VRB7      29.95S
Riverhead      NOT AVBL
Westhampton    SUNNY     85  60  42 S6        29.96S
Southhampton     N/A     82  70  65 SW3       29.91S
Bridgehampton    N/A     84  66  54 S2        29.94S
East Hampton   FAIR      84  65  51 SE5       29.94S
Montauk          N/A     78  64  61 N5        29.96S
$$

NYZ052-065-067-271600-
HUDSON VALLEY

CITY           SKY/WX    TMP DP  RH WIND       PRES   REMARKS
White Plains   SUNNY     84  60  44 NW7       29.96S
Newburgh       NOT AVBL
Montgomery     SUNNY     82  65  56 S6        29.97S
Poughkeepsie   SUNNY     83  63  50 NE5       29.95F
Albany         MOSUNNY   81  61  50 CALM      29.96S
$$

NJZ001-105-106-008-010-013-015-019>022-104-271600-
NEW JERSEY

CITY           SKY/WX    TMP DP  RH WIND       PRES   REMARKS
Newark/Liberty MOSUNNY   85  61  44 VRB5      29.95S
Teterboro      SUNNY     86  61  42 CALM      29.94F
Caldwell       SUNNY     85  62  46 CALM      29.97S
Morristown     SUNNY     84  61  45 CALM      29.97S
Somerville     SUNNY     84  64  50 S3        29.94F
Linden         FAIR      86  60  42 CALM      29.96F
Sussex         SUNNY     81  64  56 VRB3      29.98S
Abdover          N/A     80  63  55 CALM      29.99S
Trenton        SUNNY     83  64  52 S5        29.96S
Millville      SUNNY     87  73  62 SE7       29.94F HX  94
Atlantic City  SUNNY     85  68  56 SE9       29.94S
Wrightstown    SUNNY     84  66  54 VRB1      29.93S
Toms River     SUNNY     85  68  56 SE5       29.96S
Belmar         CLOUDY    83  64  52 VRB3      29.97S
$$

PAZ047>061-062-071-271600-
EASTERN PENNSYLVANIA

CITY           SKY/WX    TMP DP  RH WIND       PRES   REMARKS
Philadelphia   MOSUNNY   87  64  46 NE6       29.95S
Allentown      SUNNY     84  61  45 CALM      29.98S
Scranton       SUNNY     83  62  49 N7        30.01S
$$

CTZ002-004>006-009-010-012-RIZ004-006-007-MAZ004-011-015-271600-
SOUTHERN NEW ENGLAND
 IN CT

CITY           SKY/WX    TMP DP  RH WIND       PRES   REMARKS
Bradley INTL   SUNNY     86  60  41 VRB6      29.92F
Hartford       SUNNY     87  63  44 S6        29.93F
Danbury        MOSUNNY   82  63  52 S5        29.97F
Wtrbury/Oxford MOSUNNY   81  59  47 N5        30.00S
Bridgeport     SUNNY     81  64  56 SW8       29.95S
Meriden        SUNNY     87  59  38 VRB3      29.94S
New Haven      SUNNY     82  67  60 SW8       29.95S
Chester        FAIR      82  59  44 CALM      29.95F
Groton         SUNNY     81  67  62 SW8       29.93S
Wilimantic     NOT AVBL

 IN RI

CITY           SKY/WX    TMP DP  RH WIND       PRES   REMARKS
Providence     MOSUNNY   86  60  41 CALM      29.93F
Block Island   SUNNY     82  61  48 NE6       29.95S
Westerly         N/A     85  60  42 MISG      29.95S
 IN MA

CITY           SKY/WX    TMP DP  RH WIND       PRES   REMARKS
Boston         MOSUNNY   82  62  50 SE9       29.91F
Worchester     SUNNY     82  58  43 W7        29.97S
Westfield      MOSUNNY   87  59  38 VRB3      29.93F
Provincetown   SUNNY     78  65  63 N6        29.93S
Nantucket      CLOUDY    81  66  60 N9        29.93R
$$

ANZ330-335-338-340-345-350-353-355-271600-
COASTAL MARINE OBSERVATIONS


STATION/POSITION TIME  SKY/WX   TEMP    WIND        PRES    VSBY  WAVE
                                AIR SEA DIR/SP/G                  HT/PER
                 (UTC)          (F)     (DEG/KT/KT) (MB)    (MI)  (FT/S)
NY HARB ENTRANCE 1350            77 74   CALM  /  2 1014.1          2/ 6
20S FIRE ISLAND  1350            74 74   30/  4/  4 1013.8          2/ 6
GREAT SOUTH BAY  1400            80 81  100/  2/  4   N/A
23 SSW MONTAUK P 1350            71 70  360/  2/  2 1014.3          2/ 6
15 E BARNEGAT LI 1422               77                N/A           2/ 6
HUDSON CANYON    1350            78 78              1013.6          2/ 7
KINGS POINT      1400            78 72              1014.3
EXECUTION ROCKS  1400            76     150/  2/  4   N/A
CENTRAL LI SOUND 1415            74 75  240/  4/  4   N/A           0
EASTERN LI SOUND 1400            75 69  260/  4/  6   N/A
ROBBINS REEF     1400            81     360/  2/  2 1013.8
$$


>>>>>>>>>>>>>>>>>>>>>>>>>>>> KEY <<<<<<<<<<<<<<<<<<<<<<<<<<<
>                                                          <
>     SKY/WX - Sky Condition/Present Weather               <
>     TMP    - Temperature in Fahrenheit                   <
>     DP     - Dew Point in Fahrenheit                     <
>     RH     - Relative Humidity in Percent                <
>     WIND   - Direction (from) and Speed in MPH           <
>     PRES   - Mean Sea Level Pressure (inches of Hg)      <
>     WCI    - Wind Chill Index                            <
>     VSB    - VISIBILITY IN MILES                         <
>     HX     - HEAT INDEX                                  <
>     TC     - TEMPERATURE IN CELSIUS                      <
>     VRB    - VARIABLE WIND DIRECTION                     <
>                                                          <
>>>>>>>>>>>>>>>>>>>>>>>>>>>> KEY <<<<<<<<<<<<<<<<<<<<<<<<<<<



USA.gov is the U.S. government's official web portal to all federal, state and local government web resources and services.